User: anonymous   Login
Location: Fort Wayne
(41.1310°N, 85.1290°W)
Time: 17:31:01
(UTC-04:00)
Language:

Gbstr 26 Del rocket - Orbit

View from above orbital plane
View from above orbital plane
View from above satellite
View from above satellite

Ground track
Ground track

The orbit data is extracted from the following two-line orbital elements,

1 25876U 99041E   18173.88531735 -.00000213 +00000-0 +54457-5 0  9998
2 25876 051.7646 294.1624 0531423 028.6083 334.2940 14.04220932966689
Epoch (UTC): 22 June 2018 21:14:51
Eccentricity: 0.0531423
inclination: 51.7646°
perigee height: 493 km
apogee height: 1265 km
right ascension of ascending node: 294.1624°
argument of perigee: 28.6083°
revolutions per day: 14.04220932
mean anomaly at epoch: 334.2940°
orbit number at epoch: 96668

The dashed part of the orbit path shows where the satellite is in the earth's shadow,  

DLR